Regional Weather Roundup
Issued by NWS

Home | Current Version | Previous Version | Graphics & Text | Print | Product List | Glossary On
Versions: 1 2 3 4 5 6 7 8 9 10 11 12 13 14 15 16 17 18 19 20 21 22 23 24 25 26 27 28 29 30 31 32 33 34 35 36 37 38 39 40 41 42 43 44 45 46 47 48 49 50
997
ASUS43 KLOT 291903
RWRIL

ILLINOIS REGIONAL WEATHER ROUNDUP
NATIONAL WEATHER SERVICE CHICAGO/ROMEOVILLE IL
200 PM CDT THU SEP 29 2016

NOTE: "FAIR" INDICATES FEW OR NO CLOUDS BELOW 12,000 FEET WITH NO
SIGNIFICANT WEATHER AND/OR OBSTRUCTIONS TO VISIBILITY.

* THESE STATIONS ARE NOT UNDER NWS QUALITY CONTROL. THEY ALSO MAY NOT
  REPORT WEATHER SUCH AS PRECIPITATION OR FOG.

ILZ001-002-007-009-015-016-024-292000-
NORTHWEST ILLINOIS

CITY           SKY/WX    TMP DP  RH WIND       PRES   REMARKS
MOLINE         SUNNY     74  52  46 N15G24    30.23F
STERLING*      PTSUNNY   72  56  57 NE15G22   30.21F
$$

ILZ003-004-008-010-011-017-018-292000-
NORTH CENTRAL ILLINOIS

CITY           SKY/WX    TMP DP  RH WIND       PRES   REMARKS
ROCKFORD       CLOUDY    69  55  60 NE21G32   30.24S
FREEPORT*      PTSUNNY   70  54  56 N16G25    30.25F
ROCHELLE*      PTSUNNY   69  56  63 NE21G29   30.22F
$$

ILZ005-006-012>014-019>023-292000-
NORTHEAST ILLINOIS

CITY           SKY/WX    TMP DP  RH WIND       PRES   REMARKS
CHICAGO-OHARE  LGT RAIN  63  59  87 N15       30.18S
CHICAGO-MIDWAY PTSUNNY   66  59  78 NE21      30.16S
AURORA         CLOUDY    65  59  81 N17G24    30.20R
LANSING*       CLOUDY    65  61  88 NE15      30.15S
JOLIET*        RAIN      63  62  94 NE10      30.17R
WAUKEGAN       CLOUDY    61  58  90 N16G23    30.21F
DUPAGE AIRPORT LGT RAIN  62  58  86 N17       30.19S
KANKAKEE*      CLOUDY    66  60  82 N9        30.14S
WHEELING       LGT RAIN  61  59  93 N10G17    30.21S
MORRIS*        LGT RAIN  63  60  90 N6        30.16S
ROMEOVILLE*    HVY RAIN  61  61 100 NE12      30.17R
NORTHERLY ISL    N/A     63  58  83 NE15        N/A
$$

LMZ740>746-292000-
SOUTHERN LAKE MICHIGAN

STATION/POSITION SKY/WX   TEMP    WIND        PRES    VSBY  WAVE
                          AIR SEA DIR/SP/G                  HT/PER
                          (F)     (DEG/KT/KT) (MB)    (MI)  (FT/S)
SOUTHERN BUOY              64 69   60/ 25/ 29 1022.1          7/ 7
WILMETTE HARBOR            62 54   70/ 17/ 23   N/A           7/ 7
HARRISON CRIB              65      50/ 24/ 27   N/A
BURNHAM HARBOR             63      30/ 14/ 22   N/A
CALUMET HARBOR             64      30/ 15/ 22 1020.9S
BURNS HARBOR               64      50/ 17/ 20 1021.0F
MICHIGAN CITY              62      10/ 18/ 20   N/A
MICHIGAN CITY 6N           63 65   30/ 16/ 21   N/A           7/ 7
ST. JOSEPH                 64 64   30/ 16/ 19 1021.1F         5/ 6
$$

ILZ025>027-034>036-040-047-049-050-058-095>099-292000-
WEST-CENTRAL ILLINOIS

CITY           SKY/WX    TMP DP  RH WIND       PRES   REMARKS
QUINCY         SUNNY     73  52  47 N20       30.21F
GALESBURG*     MOSUNNY   72  53  51 N20G25    30.21F
MACOMB*        SUNNY     73  51  47 N15G24    30.23F
JACKSONVILLE*  CLOUDY    67  53  59 NW17      30.18F
PITTSFIELD*    SUNNY     71  54  54 N8G18     30.21F
$$

ILZ028>032-037-038-041>044-048-051>054-059>061-292000-
CENTRAL ILLINOIS

CITY           SKY/WX    TMP DP  RH WIND       PRES   REMARKS
PONTIAC        CLOUDY    65  64  94 N12       30.16F
BLOOMINGTON    HVY RAIN  61  59  93 N14       30.16S FOG
DECATUR        MOSUNNY   67  59  75 N14       30.14F
PEORIA         CLOUDY    66  55  67 N7        30.18S
LINCOLN*       CLOUDY    65  60  83 N16G23    30.16F
SPRINGFIELD    CLOUDY    66  56  70 N13G25    30.16S
TAYLORVILLE    RAIN      58  58  99 CALM      30.15S
$$

ILZ033-039-045-046-055>057-062-063-292000-
EAST-CENTRAL ILLINOIS

CITY           SKY/WX    TMP DP  RH WIND       PRES   REMARKS
CHAMPAIGN      CLOUDY    66  55  67 N9        30.12S
RANTOUL*       CLOUDY    69  57  65 N13G20    30.12S
MATTOON        CLOUDY    67  50  54 NE13      30.10S
PARIS*         PTSUNNY   68  54  60 N3        30.11S
$$

ILZ079-100>102-292000-
SOUTHWEST ILLINOIS

CITY           SKY/WX    TMP DP  RH WIND       PRES   REMARKS
ALTON          CLOUDY    61  54  77 NW8G18    30.17F
BELLEVILLE     MOSUNNY   65  56  73 NW10G18   30.15S
CAHOKIA*       CLOUDY    65  54  67 NW13      30.17F
SPARTA*        CLOUDY    63  55  76 NW7       30.16S
$$

ILZ064>066-069>071-074>076-080>082-084>086-088>090-092>094-292000-
SOUTH-CENTRAL ILLINOIS

CITY           SKY/WX    TMP DP  RH WIND       PRES   REMARKS
CARBONDALE     CLOUDY    64  57  78 NW12      30.13S
EFFINGHAM*     CLOUDY    66  56  71 W10       30.12S
MARION         CLOUDY    66  55  68 N12       30.12F
MT. VERNON     CLOUDY    66  52  59 N3        30.12S
CENTRALIA*     CLOUDY    64  57  77 N10       30.12S
SALEM*         CLOUDY    66  56  69 NW13G21   30.12F
METROPOLIS*    CLOUDY    62  58  86 NW8       30.13S
$$

ILZ067-068-072-073-078-083-087-091-292000-
SOUTHEAST ILLINOIS

CITY           SKY/WX    TMP DP  RH WIND       PRES   REMARKS
LAWRENCEVILLE  PTSUNNY   67  52  58 MISG      30.09F
FLORA*         PTSUNNY   69  52  55 N9        30.10S
FAIRFIELD*     CLOUDY    66  52  60 N6        30.09F
HARRISBURG*    PTSUNNY   68  55  64 NW14      30.11S
ROBINSON*      CLOUDY    64  54  69 NE9       30.11R
CARMI*         PTSUNNY   67  51  57 N9        30.09R
$$

ABBREVIATIONS USED IN REMARKS
   TC - TEMPERATURE IN CELSIUS
  WCI - WIND CHILL INDEX
   HX - HEAT INDEX
  VSB - VISIBILITY
$$





USA.gov is the U.S. government's official web portal to all federal, state and local government web resources and services.